Coolangatta, Australia

2:02 PM AEST on April 29, 2017 (GMT +1000)
Coolangatta

Weather History for YBCG - July, 2013

Change the Weather History Date:

Thursday, July 25, 2013

  Actual Average Record
Temperature  
Mean Temperature 62 °F -  
Max Temperature 66 °F - - ()
Min Temperature 57 °F - - ()
Degree Days  
Heating Degree Days 4    
Growing Degree Days 12 (Base 50)    
Moisture  
Dew Point 52 °F    
Average Humidity 71    
Maximum Humidity 94    
Minimum Humidity 50    
Precipitation  
Precipitation 0.00 in - - ()
Sea Level Pressure  
Sea Level Pressure 30.28 in    
Wind  
Wind Speed 11 mph ()    
Max Wind Speed 18 mph    
Max Gust Speed 32 mph    
Visibility 6.0 miles    
Events      
T = Trace of Precipitation, MM = Missing Value Source: Averaged Metar Reports

Daily Weather History Graph

Daily Weather History Graph

Search for Another Location

Airport or City:

Trip Planner

Search our weather history database for the weather conditions in past years. The results will help you decide how hot, cold, wet, or windy it might be!

Date:

Astronomy

Jul. 25, 2013 Rise Set
Actual Time 6:32 AM AEST 5:12 PM AEST
Civil Twilight 6:07 AM AEST 5:37 PM AEST
Nautical Twilight 5:39 AM AEST 6:06 PM AEST
Astronomical Twilight 5:10 AM AEST 6:34 PM AEST
Moon 8:02 PM AEST (7/25) 7:57 AM AEST (7/25)
Length of Visible Light 11h 30m
Length of Day
10h 40m
Waning Gibbous, 92% of the Moon is Illuminated
Jul 25
Waning Gibbous
Jul 30
Last Quarter
Aug 7
New
Aug 14
First Quarter
Aug 21
Full

Hourly Weather History & Observations

Time (AEST) Temp. Dew Point Humidity Pressure Visibility Wind Dir Wind Speed Gust Speed Precip Events Conditions
12:00 AM 61 °F 48 °F 51% 30.24 in - SSW 12.7 mph - -   Overcast
12:00 AM 60.8 °F 48.2 °F 63% 30.21 in 6.2 mi SSW 12.7 mph - N/A   Overcast
12:30 AM 60.8 °F 48.2 °F 63% 30.21 in 6.2 mi SSW 12.7 mph - N/A   Overcast
1:00 AM 60.8 °F 46.4 °F 59% 30.21 in 6.2 mi SSW 13.8 mph - N/A   Overcast
1:30 AM 60.8 °F 46.4 °F 59% 30.21 in 6.2 mi SSW 12.7 mph - N/A   Overcast
2:00 AM 60.8 °F 46.4 °F 59% 30.21 in 6.2 mi SSW 13.8 mph - N/A   Overcast
2:30 AM 60.8 °F 46.4 °F 59% 30.21 in 6.2 mi SSW 13.8 mph - N/A   Overcast
3:00 AM 59 °F 47 °F 55% 30.23 in - SSW 13.8 mph - -  
3:00 AM 59.0 °F 46.4 °F 63% 30.21 in 6.2 mi SSW 13.8 mph - N/A   Unknown
3:22 AM 59.0 °F 48.2 °F 67% 30.21 in 6.2 mi SSW 17.3 mph 29.9 mph N/A   Unknown
3:30 AM 59.0 °F 48.2 °F 67% 30.24 in 6.2 mi South 17.3 mph - N/A   Scattered Clouds
4:00 AM 59.0 °F 46.4 °F 63% 30.21 in 6.2 mi South 16.1 mph - N/A   Mostly Cloudy
4:24 AM 59.0 °F 48.2 °F 67% 30.24 in 6.2 mi SSW 17.3 mph 32.2 mph N/A   Mostly Cloudy
4:30 AM 59.0 °F 48.2 °F 67% 30.24 in 6.2 mi SSW 18.4 mph 32.2 mph N/A   Mostly Cloudy
5:00 AM 59.0 °F 46.4 °F 63% 30.24 in 6.2 mi SSW 12.7 mph - N/A   Mostly Cloudy
5:30 AM 59.0 °F 46.4 °F 63% 30.24 in 6.2 mi SSW 13.8 mph - N/A   Mostly Cloudy
6:00 AM 59 °F 45 °F 50% 30.26 in - SSW 13.8 mph - -   Overcast
6:00 AM 59.0 °F 44.6 °F 59% 30.24 in 6.2 mi SSW 13.8 mph - N/A   Mostly Cloudy
6:30 AM 59.0 °F 46.4 °F 63% 30.27 in 6.2 mi South 12.7 mph - N/A   Unknown
7:00 AM 59.0 °F 46.4 °F 63% 30.27 in 6.2 mi South 13.8 mph 25.3 mph N/A   Unknown
7:30 AM 59.0 °F 48.2 °F 67% 30.27 in 6.2 mi SSW 11.5 mph - N/A   Mostly Cloudy
8:00 AM 60.8 °F 48.2 °F 63% 30.30 in 6.2 mi SSW 12.7 mph - N/A   Mostly Cloudy
8:30 AM 60.8 °F 50.0 °F 68% 30.30 in 6.2 mi South 12.7 mph - N/A   Overcast
9:00 AM 61 °F 50 °F 58% 30.32 in - SSW 10.4 mph - -   Overcast
9:00 AM 60.8 °F 50.0 °F 68% 30.30 in 6.2 mi SSW 10.4 mph - N/A   Overcast
9:30 AM 62.6 °F 50.0 °F 63% 30.33 in 6.2 mi SSW 11.5 mph - N/A   Overcast
10:00 AM 64.4 °F 51.8 °F 64% 30.33 in 6.2 mi SW 10.4 mph - N/A   Overcast
10:30 AM 62.6 °F 50.0 °F 63% 30.33 in 6.2 mi SSW 12.7 mph - N/A   Overcast
11:00 AM 64.4 °F 51.8 °F 64% 30.33 in 6.2 mi SSW 10.4 mph - N/A   Overcast
11:30 AM 64.4 °F 51.8 °F 64% 30.30 in 6.2 mi SW 12.7 mph - N/A   Overcast
12:00 PM 66 °F 52 °F 50% 30.30 in - South 10.4 mph - -   Overcast
12:00 PM 66.2 °F 51.8 °F 60% 30.30 in 6.2 mi South 10.4 mph - N/A   Mostly Cloudy
12:30 PM 64.4 °F 53.6 °F 68% 30.27 in 6.2 mi South 15.0 mph - N/A   Overcast
1:00 PM 64.4 °F 55.4 °F 73% 30.27 in 6.2 mi South 10.4 mph - N/A   Overcast
1:30 PM 66.2 °F 55.4 °F 68% 30.24 in 6.2 mi South 11.5 mph - N/A   Overcast
2:00 PM 64.4 °F 53.6 °F 68% 30.24 in 6.2 mi SSW 11.5 mph - N/A   Overcast
2:30 PM 64.4 °F 53.6 °F 68% 30.27 in 6.2 mi South 11.5 mph - N/A   Overcast
3:00 PM 66 °F 55 °F 58% 30.27 in - South 11.5 mph - -   Overcast
3:00 PM 66.2 °F 55.4 °F 68% 30.27 in 6.2 mi South 11.5 mph - N/A   Overcast
3:30 PM 64.4 °F 53.6 °F 68% 30.27 in 6.2 mi South 12.7 mph - N/A   Mostly Cloudy
4:00 PM 64.4 °F 55.4 °F 73% 30.27 in 6.2 mi SSW 10.4 mph - N/A   Overcast
4:30 PM 62.6 °F 53.6 °F 72% 30.27 in 6.2 mi South 10.4 mph - N/A   Mostly Cloudy
5:00 PM 60.8 °F 55.4 °F 82% 30.27 in 6.2 mi South 11.5 mph - N/A   Overcast
5:05 PM 60.8 °F 55.4 °F 82% 30.30 in 3.7 mi South 13.8 mph - N/A   Overcast
5:23 PM 59.0 °F 55.4 °F 88% 30.27 in 6.2 mi SSW 8.1 mph - N/A   Overcast
5:30 PM 59.0 °F 55.4 °F 88% 30.27 in 6.2 mi SSW 9.2 mph - N/A   Overcast
6:00 PM 60 °F 55 °F 78% 30.31 in - SSW 11.5 mph - -  
6:00 PM 59.0 °F 55.4 °F 88% 30.30 in 6.2 mi SSW 11.5 mph - N/A   Overcast
6:30 PM 60.8 °F 55.4 °F 82% 30.30 in 6.2 mi SSW 11.5 mph - N/A   Overcast
7:00 PM 59.0 °F 55.4 °F 88% 30.33 in 6.2 mi SW 9.2 mph - N/A   Overcast
7:30 PM 59.0 °F 55.4 °F 88% 30.33 in 6.2 mi SW 10.4 mph - N/A   Overcast
8:04 PM 59.0 °F 55.4 °F 88% 30.33 in 3.7 mi SSW 11.5 mph - N/A   Overcast
8:30 PM 59.0 °F 55.4 °F 88% 30.33 in 6.2 mi SW 5.8 mph - N/A   Overcast
8:35 PM 59.0 °F 55.4 °F 88% 30.33 in 6.2 mi SW 6.9 mph - N/A   Overcast
9:00 PM 59 °F 55 °F 82% 30.36 in - SW 8.1 mph - -   Overcast
9:00 PM 59.0 °F 55.4 °F 88% 30.33 in 6.2 mi SW 8.1 mph - N/A   Overcast
9:30 PM 59.0 °F 55.4 °F 88% 30.33 in 6.2 mi SSW 9.2 mph - N/A   Overcast
10:00 PM 59.0 °F 55.4 °F 88% 30.36 in 6.2 mi South 10.4 mph - N/A   Overcast
10:20 PM 59.0 °F 55.4 °F 88% 30.36 in 3.7 mi SSW 9.2 mph - N/A   Overcast
10:30 PM 57.2 °F 55.4 °F 94% 30.36 in 1.2 mi South 6.9 mph - N/A   Overcast
10:57 PM 57.2 °F 55.4 °F 94% 30.33 in 6.2 mi SSW 5.8 mph - N/A   Overcast
11:00 PM 57.2 °F 55.4 °F 94% 30.33 in 6.2 mi SW 5.8 mph - N/A   Overcast
11:30 PM 57.2 °F 55.4 °F 94% 30.33 in 6.2 mi WSW 8.1 mph - N/A   Overcast